Weather History for Louisburg, NC

Change the Weather History Date:

Tuesday, June 18, 2013

  Actual Average (KRDU) Record (KRDU)
Temperature  
Mean Temperature 78 °F 77 °F  
Max Temperature 82 °F 88 °F 98 °F (1944)
Min Temperature 73 °F 67 °F 47 °F (1961)
Degree Days  
Heating Degree Days 0 0  
Month to date heating degree days 0  
Since 1 June heating degree days 0  
Since 1 July heating degree days 3243  
Cooling Degree Days 12 12  
Month to date cooling degree days 184  
Year to date cooling degree days 393  
Since 1 June cooling degree days 184  
Growing Degree Days 28 (Base 50)    
Moisture  
Dew Point 72 °F    
Average Humidity 85    
Maximum Humidity 100    
Minimum Humidity 70    
Precipitation  
Precipitation 0.53 in 0.11 in 3.34 in (1967)
Month to date precipitation 2.12  
Year to date precipitation 19.15  
Sea Level Pressure  
Sea Level Pressure 29.89 in    
Wind  
Wind Speed 3 mph (SSW)    
Max Wind Speed 8 mph    
Max Gust Speed 10 mph    
Visibility 9 miles    
Events Rain    
T = Trace of Precipitation, MM = Missing Value Source: NWS Daily Summary

Daily Weather History Graph

Daily Weather History Graph

Search for Another Location

Airport:

Trip Planner

Search our weather history database for the weather conditions in past years. The results will help you decide how hot, cold, wet, or windy it might be!

Date:

Astronomy

Jun. 18, 2013 Rise Set
Actual Time 5:56 AM EDT 8:32 PM EDT
Civil Twilight 5:26 AM EDT 9:03 PM EDT
Nautical Twilight 4:48 AM EDT 9:40 PM EDT
Astronomical Twilight 4:06 AM EDT 10:22 PM EDT
Moon 3:22 PM EDT (6/18) 1:55 AM EDT (6/18)
Length of Visible Light 15h 37m
Length of Day
14h 36m
Waxing Gibbous, 70% of the Moon is Illuminated
Jun 18
Waxing Gibbous
Jun 23
Full
Jun 30
Last Quarter
Jul 8
New
Jul 15
First Quarter

Hourly Weather History & Observations

Time (EDT) Temp. Heat Index Dew Point Humidity Pressure Visibility Wind Dir Wind Speed Gust Speed Precip Events Conditions
12:15 AM 73.4 °F - 73.4 °F 100% 29.99 in 10.0 mi SSW 4.6 mph - N/A   Scattered Clouds
12:35 AM 73.4 °F - 73.4 °F 100% 29.98 in 10.0 mi South 4.6 mph - N/A Rain Light Rain
12:55 AM - - - N/A% 29.97 in 10.0 mi SSW 3.5 mph - 0.01 in Rain Rain
1:15 AM - - - N/A% 29.96 in 10.0 mi South 6.9 mph - N/A   Light Drizzle
1:35 AM - - - N/A% 29.95 in 10.0 mi SSW 3.5 mph - N/A   Scattered Clouds
1:55 AM - - - N/A% 29.95 in 10.0 mi Calm Calm - N/A   Overcast
2:15 AM - - - N/A% 29.94 in 10.0 mi SSW 3.5 mph - N/A   Scattered Clouds
2:35 AM - - - N/A% 29.93 in 10.0 mi Calm Calm - N/A   Clear
2:55 AM - - - N/A% 29.93 in 10.0 mi Calm Calm - N/A   Clear
3:15 AM - - - N/A% 29.93 in 10.0 mi Calm Calm - N/A   Clear
3:35 AM - - - N/A% 29.92 in 10.0 mi SSW 3.5 mph - N/A   Scattered Clouds
3:55 AM - - - N/A% 29.93 in 10.0 mi Calm Calm - N/A   Clear
4:15 AM - - - N/A% 29.92 in 10.0 mi Calm Calm - N/A   Clear
4:35 AM - - - N/A% 29.92 in 10.0 mi South 3.5 mph - N/A   Clear
4:55 AM - - - N/A% 29.92 in 10.0 mi South 3.5 mph - N/A   Clear
5:15 AM - - - N/A% 29.92 in 10.0 mi South 3.5 mph - N/A   Clear
5:35 AM - - - N/A% 29.93 in 10.0 mi Calm Calm - N/A   Mostly Cloudy
5:55 AM - - - N/A% 29.93 in 10.0 mi South 5.8 mph - N/A   Overcast
6:15 AM - - - N/A% 29.93 in 10.0 mi South 4.6 mph - N/A   Overcast
6:35 AM - - - N/A% 29.94 in 7.0 mi SSW 4.6 mph - N/A   Overcast
6:55 AM - - - N/A% 29.94 in 7.0 mi South 4.6 mph - N/A   Overcast
7:15 AM - - - N/A% 29.94 in 7.0 mi South 3.5 mph - N/A   Overcast
7:35 AM - - - N/A% 29.94 in 7.0 mi Calm Calm - N/A   Overcast
7:55 AM - - - N/A% 29.94 in 7.0 mi Calm Calm - N/A   Overcast
8:15 AM - - - N/A% 29.94 in 7.0 mi South 3.5 mph - N/A   Overcast
8:35 AM - - - N/A% 29.94 in 7.0 mi Calm Calm - N/A   Overcast
8:55 AM - - - N/A% 29.94 in 7.0 mi Calm Calm - N/A   Overcast
9:15 AM - - - N/A% 29.93 in 7.0 mi Calm Calm - N/A   Overcast
9:35 AM - - - N/A% 29.92 in 7.0 mi Calm Calm - N/A   Overcast
9:55 AM 73.4 °F - 73.4 °F 100% 29.92 in 10.0 mi SSW 3.5 mph - N/A   Overcast
10:15 AM 73.4 °F - 73.4 °F 100% 29.92 in 10.0 mi Calm Calm - N/A   Overcast
10:35 AM 73.4 °F - 73.4 °F 100% 29.92 in 10.0 mi Calm Calm - N/A   Overcast
10:55 AM 73.4 °F - 73.4 °F 100% 29.92 in 10.0 mi Calm Calm - N/A   Overcast
11:15 AM 77.0 °F - 73.4 °F 89% 29.92 in 10.0 mi Calm Calm - N/A   Overcast
11:35 AM 75.2 °F - 73.4 °F 94% 29.92 in 10.0 mi SSW 3.5 mph - N/A   Overcast
11:55 AM 77.0 °F - 73.4 °F 89% 29.92 in 10.0 mi Calm Calm - N/A   Overcast
12:15 PM 75.2 °F - 73.4 °F 94% 29.91 in 10.0 mi Calm Calm - N/A   Overcast
12:35 PM 75.2 °F - 75.2 °F 100% 29.90 in 10.0 mi Calm Calm - N/A   Overcast
12:55 PM 77.0 °F - 75.2 °F 94% 29.89 in 10.0 mi Calm Calm - N/A   Mostly Cloudy
1:15 PM 77.0 °F - 73.4 °F 89% 29.89 in 10.0 mi Calm Calm - N/A   Mostly Cloudy
1:35 PM 77.0 °F - 71.6 °F 83% 29.88 in 10.0 mi SSW 3.5 mph - N/A   Overcast
1:55 PM 78.8 °F - 71.6 °F 78% 29.88 in 10.0 mi Calm Calm - N/A   Overcast
2:15 PM 78.8 °F - 71.6 °F 78% 29.87 in 10.0 mi SSW 5.8 mph - N/A   Mostly Cloudy
2:35 PM 78.8 °F - 71.6 °F 78% 29.87 in 10.0 mi Calm Calm - N/A   Mostly Cloudy
2:55 PM 80.6 °F 83.9 °F 69.8 °F 70% 29.85 in 10.0 mi SSW 4.6 mph - N/A   Scattered Clouds
3:15 PM 80.6 °F 83.9 °F 69.8 °F 70% 29.84 in 10.0 mi SSW 4.6 mph - N/A   Mostly Cloudy
3:35 PM 80.6 °F 83.9 °F 69.8 °F 70% 29.84 in 10.0 mi SSW 4.6 mph - N/A   Scattered Clouds
3:55 PM 80.6 °F 83.9 °F 69.8 °F 70% 29.83 in 10.0 mi SSW 4.6 mph - N/A   Mostly Cloudy
4:15 PM 80.6 °F 83.9 °F 69.8 °F 70% 29.82 in 10.0 mi SW 3.5 mph - N/A   Scattered Clouds
4:35 PM 82.4 °F 87.2 °F 71.6 °F 70% 29.82 in 10.0 mi South 6.9 mph - N/A   Scattered Clouds
4:55 PM 80.6 °F 83.9 °F 69.8 °F 70% 29.81 in 10.0 mi SSW 5.8 mph - N/A   Mostly Cloudy
5:15 PM 80.6 °F 84.6 °F 71.6 °F 74% 29.80 in 10.0 mi South 4.6 mph 10.4 mph N/A   Mostly Cloudy
5:35 PM 80.6 °F 83.9 °F 69.8 °F 70% 29.79 in 10.0 mi South 8.1 mph - N/A   Mostly Cloudy
5:55 PM 78.8 °F - 71.6 °F 78% 29.78 in 10.0 mi South 5.8 mph - N/A   Scattered Clouds
6:15 PM 77.0 °F - 75.2 °F 94% 29.76 in 10.0 mi SSE 6.9 mph - N/A Rain Light Rain
6:55 PM - - - N/A% 29.80 in 7.0 mi NW 5.8 mph - 0.22 in Rain Rain
7:15 PM - - - N/A% 29.79 in 2.0 mi Calm Calm - 0.27 in Rain Light Rain
7:35 PM - - - N/A% 29.81 in 7.0 mi Calm Calm - 0.28 in Rain Light Rain
7:55 PM - - - N/A% 29.82 in 10.0 mi Calm Calm - 0.30 in   Mostly Cloudy
8:15 PM - - - N/A% 29.82 in 10.0 mi Calm Calm - N/A   Mostly Cloudy
8:35 PM - - - N/A% 29.83 in 10.0 mi Calm Calm - N/A   Scattered Clouds
8:55 PM - - - N/A% 29.83 in 10.0 mi Calm Calm - N/A   Scattered Clouds
9:15 PM - - - N/A% 29.83 in 10.0 mi Calm Calm - N/A   Scattered Clouds
9:35 PM - - - N/A% 29.84 in 10.0 mi Calm Calm - N/A   Mostly Cloudy
9:55 PM - - - N/A% 29.85 in 10.0 mi Calm Calm - N/A   Overcast
10:15 PM - - - N/A% 29.87 in 10.0 mi Calm Calm - N/A   Overcast
10:35 PM - - - N/A% 29.87 in 10.0 mi Calm Calm - N/A   Drizzle
10:55 PM - - - N/A% 29.87 in 7.0 mi Calm Calm - N/A   Overcast
11:15 PM - - - N/A% 29.88 in 10.0 mi Calm Calm - N/A   Overcast
11:35 PM - - - N/A% 29.89 in 10.0 mi North 5.8 mph - N/A   Overcast
11:55 PM - - - N/A% 29.90 in 10.0 mi North 5.8 mph - N/A   Overcast